Location: Campillo
(40.8621°N, 4.2488°W)
Time: 13:41:26
(UTC+00:00)

USA 308 - Pass Details

Date: 21 September 2021
Orbit: 566 x 573 km, 54.0° (Epoch: 23 September)

Event Time Altitude Azimuth Distance (km) Brightness Sun altitude
Rises 19:16:13 0° 291° (WNW) 2,766 8.3 -12.2°
Reaches altitude 10° 19:19:21 10° 315° (NW) 1,871 6.4 -12.8°
Maximum altitude 19:21:49 15° 351° (N) 1,578 5.4 -13.2°
Drops below altitude 10° 19:24:18 10° 27° (NNE) 1,875 5.4 -13.7°
Enters shadow 19:26:08 - 43° (NE) 2,361 5.8 -14.0°
